Time,TemperatureF,DewpointF,PressureIn,WindDirection,WindDirectionDegrees,WindSpeedMPH,WindSpeedGustMPH,Humidity,HourlyPrecipIn,Conditions,Clouds,dailyrainin,SoftwareType,DateUTC
2013-01-06 00:00:00,13.2,9.0,30.14,West,270,7.5,9.5,83,0.00,,,0.00,WUHU216HW,2013-01-06 06:00:00,
2013-01-06 00:05:00,13.6,9.4,30.14,West,270,9.4,9.4,83,0.00,,,0.00,WUHU216HW,2013-01-06 06:05:00,
2013-01-06 00:10:00,13.6,9.4,30.14,West,270,2.5,9.8,83,0.00,,,0.00,WUHU216HW,2013-01-06 06:10:00,
2013-01-06 00:15:00,13.6,9.4,30.14,West,270,8.0,9.4,83,0.00,,,0.00,WUHU216HW,2013-01-06 06:15:00,
2013-01-06 00:20:00,13.6,9.4,30.14,West,270,9.8,9.8,83,0.00,,,0.00,WUHU216HW,2013-01-06 06:20:00,
2013-01-06 00:25:00,13.6,9.4,30.15,West,270,2.8,9.8,83,0.00,,,0.00,WUHU216HW,2013-01-06 06:25:00,
2013-01-06 00:30:00,13.6,9.4,30.15,West,270,7.3,9.8,83,0.00,,,0.00,WUHU216HW,2013-01-06 06:30:00,
2013-01-06 00:35:00,13.2,9.0,30.14,West,270,6.4,8.5,83,0.00,,,0.00,WUHU216HW,2013-01-06 06:35:00,
2013-01-06 00:40:00,13.1,8.6,30.14,West,270,4.8,7.8,82,0.00,,,0.00,WUHU216HW,2013-01-06 06:40:00,
2013-01-06 00:45:00,12.7,8.2,30.14,West,270,6.1,8.5,82,0.00,,,0.00,WUHU216HW,2013-01-06 06:45:00,
2013-01-06 00:50:00,12.5,8.0,30.14,West,270,6.4,8.9,82,0.00,,,0.00,WUHU216HW,2013-01-06 06:50:00,
2013-01-06 00:55:00,12.3,7.8,30.14,WSW,248,4.6,6.1,82,0.00,,,0.00,WUHU216HW,2013-01-06 06:55:00,
2013-01-06 01:00:00,12.0,7.5,30.14,West,270,0.0,7.2,82,0.00,,,0.00,WUHU216HW,2013-01-06 07:00:00,
2013-01-06 01:05:00,11.6,7.1,30.15,West,270,0.0,7.2,82,0.00,,,0.00,WUHU216HW,2013-01-06 07:05:00,
2013-01-06 01:10:00,11.4,6.9,30.15,West,270,1.0,1.0,82,0.00,,,0.00,WUHU216HW,2013-01-06 07:10:00,
2013-01-06 01:15:00,11.1,6.6,30.14,WSW,248,0.0,1.0,82,0.00,,,0.00,WUHU216HW,2013-01-06 07:15:00,
2013-01-06 01:20:00,10.7,6.2,30.14,WSW,237,4.6,5.0,82,0.00,,,0.00,WUHU216HW,2013-01-06 07:20:00,
2013-01-06 01:25:00,10.5,6.0,30.14,West,270,5.3,5.3,82,0.00,,,0.00,WUHU216HW,2013-01-06 07:25:00,
2013-01-06 01:30:00,10.5,6.0,30.14,WSW,248,6.9,7.8,82,0.00,,,0.00,WUHU216HW,2013-01-06 07:30:00,
2013-01-06 01:35:00,10.5,6.0,30.14,WSW,248,7.0,7.4,82,0.00,,,0.00,WUHU216HW,2013-01-06 07:35:00,
2013-01-06 01:40:00,10.2,5.7,30.13,West,270,0.0,7.3,82,0.00,,,0.00,WUHU216HW,2013-01-06 07:40:00,
2013-01-06 01:45:00,9.8,5.3,30.13,WSW,248,8.5,8.5,82,0.00,,,0.00,WUHU216HW,2013-01-06 07:45:00,
2013-01-06 01:50:00,9.6,5.2,30.13,West,270,3.7,8.5,82,0.00,,,0.00,WUHU216HW,2013-01-06 07:50:00,
2013-01-06 01:55:00,9.6,5.2,30.13,WSW,248,6.1,6.1,82,0.00,,,0.00,WUHU216HW,2013-01-06 07:55:00,
2013-01-06 02:00:00,9.6,5.2,30.13,WSW,248,4.8,6.4,82,0.00,,,0.00,WUHU216HW,2013-01-06 08:00:00,
2013-01-06 02:05:00,9.1,4.4,30.13,WSW,258,4.1,6.4,81,0.00,,,0.00,WUHU216HW,2013-01-06 08:05:00,
2013-01-06 02:10:00,9.1,4.4,30.13,WSW,248,4.2,4.6,81,0.00,,,0.00,WUHU216HW,2013-01-06 08:10:00,
2013-01-06 02:15:00,8.9,4.3,30.14,WSW,248,1.8,4.6,81,0.00,,,0.00,WUHU216HW,2013-01-06 08:15:00,
2013-01-06 02:20:00,8.7,4.1,30.14,SW,225,3.9,4.4,81,0.00,,,0.00,WUHU216HW,2013-01-06 08:20:00,
2013-01-06 02:25:00,8.4,3.8,30.14,SW,225,0.0,3.9,81,0.00,,,0.00,WUHU216HW,2013-01-06 08:25:00,
2013-01-06 02:30:00,8.0,3.4,30.15,WSW,248,0.0,1.6,81,0.00,,,0.00,WUHU216HW,2013-01-06 08:30:00,
2013-01-06 02:35:00,7.7,3.0,30.15,WSW,248,5.9,5.9,81,0.00,,,0.00,WUHU216HW,2013-01-06 08:35:00,
2013-01-06 02:40:00,7.5,2.9,30.16,West,270,0.0,5.9,81,0.00,,,0.00,WUHU216HW,2013-01-06 08:40:00,
2013-01-06 02:45:00,7.5,2.9,30.16,West,270,0.0,6.1,81,0.00,,,0.00,WUHU216HW,2013-01-06 08:45:00,
2013-01-06 02:50:00,7.3,2.7,30.16,WNW,293,0.0,0.0,81,0.00,,,0.00,WUHU216HW,2013-01-06 08:50:00,
2013-01-06 02:55:00,7.5,2.9,30.16,West,270,0.0,0.0,81,0.00,,,0.00,WUHU216HW,2013-01-06 08:55:00,
2013-01-06 03:00:00,7.5,2.9,30.16,West,270,0.0,0.0,81,0.00,,,0.00,WUHU216HW,2013-01-06 09:00:00,
2013-01-06 03:05:00,7.7,3.0,30.16,West,270,0.0,0.0,81,0.00,,,0.00,WUHU216HW,2013-01-06 09:05:00,
2013-01-06 03:10:00,7.7,3.0,30.16,West,270,3.6,3.6,81,0.00,,,0.00,WUHU216HW,2013-01-06 09:10:00,
2013-01-06 03:15:00,7.8,3.2,30.16,West,270,2.1,3.9,81,0.00,,,0.00,WUHU216HW,2013-01-06 09:15:00,
2013-01-06 03:20:00,8.0,3.4,30.16,WNW,293,4.6,4.6,81,0.00,,,0.00,WUHU216HW,2013-01-06 09:20:00,
2013-01-06 03:25:00,8.2,3.6,30.16,West,270,2.9,4.6,81,0.00,,,0.00,WUHU216HW,2013-01-06 09:25:00,
2013-01-06 03:30:00,8.2,3.6,30.16,West,270,0.0,4.6,81,0.00,,,0.00,WUHU216HW,2013-01-06 09:30:00,
2013-01-06 03:35:00,8.2,3.6,30.16,West,270,1.6,1.6,81,0.00,,,0.00,WUHU216HW,2013-01-06 09:35:00,
2013-01-06 03:40:00,8.0,3.4,30.16,WSW,248,2.6,2.6,81,0.00,,,0.00,WUHU216HW,2013-01-06 09:40:00,
2013-01-06 03:45:00,8.2,3.6,30.16,West,270,0.0,2.8,81,0.00,,,0.00,WUHU216HW,2013-01-06 09:45:00,
2013-01-06 03:50:00,7.8,3.2,30.16,SW,225,0.7,2.9,81,0.00,,,0.00,WUHU216HW,2013-01-06 09:50:00,
2013-01-06 03:55:00,7.7,3.0,30.16,SW,225,0.7,2.9,81,0.00,,,0.00,WUHU216HW,2013-01-06 09:55:00,
2013-01-06 04:00:00,7.3,2.7,30.16,SW,225,0.0,0.8,81,0.00,,,0.00,WUHU216HW,2013-01-06 10:00:00,
2013-01-06 04:05:00,6.9,2.3,30.16,WSW,248,2.8,2.8,81,0.00,,,0.00,WUHU216HW,2013-01-06 10:05:00,
2013-01-06 04:10:00,6.6,2.0,30.16,WSW,248,2.0,2.6,81,0.00,,,0.00,WUHU216HW,2013-01-06 10:10:00,
2013-01-06 04:15:00,6.9,2.3,30.16,WSW,248,3.3,3.3,81,0.00,,,0.00,WUHU216HW,2013-01-06 10:15:00,
2013-01-06 04:20:00,7.1,2.5,30.16,West,270,1.0,4.0,81,0.00,,,0.00,WUHU216HW,2013-01-06 10:20:00,
2013-01-06 04:25:00,7.5,2.9,30.16,West,270,0.0,4.8,81,0.00,,,0.00,WUHU216HW,2013-01-06 10:25:00,
2013-01-06 04:30:00,7.5,2.9,30.16,WSW,248,4.0,4.6,81,0.00,,,0.00,WUHU216HW,2013-01-06 10:30:00,
2013-01-06 04:35:00,7.7,3.0,30.16,WSW,248,4.0,4.0,81,0.00,,,0.00,WUHU216HW,2013-01-06 10:35:00,
2013-01-06 04:40:00,7.8,3.2,30.15,West,270,0.0,4.0,81,0.00,,,0.00,WUHU216HW,2013-01-06 10:40:00,
2013-01-06 04:45:00,7.8,3.2,30.15,SW,225,5.5,5.5,81,0.00,,,0.00,WUHU216HW,2013-01-06 10:45:00,
2013-01-06 04:50:00,8.0,3.4,30.16,West,270,0.0,6.6,81,0.00,,,0.00,WUHU216HW,2013-01-06 10:50:00,
2013-01-06 04:55:00,8.0,3.4,30.16,West,270,1.9,6.9,81,0.00,,,0.00,WUHU216HW,2013-01-06 10:55:00,
2013-01-06 05:00:00,8.4,3.8,30.16,West,270,4.2,5.0,81,0.00,,,0.00,WUHU216HW,2013-01-06 11:00:00,
2013-01-06 05:05:00,8.6,3.9,30.16,West,270,0.0,4.2,81,0.00,,,0.00,WUHU216HW,2013-01-06 11:05:00,
2013-01-06 05:10:00,8.7,4.1,30.16,WNW,293,2.0,2.4,81,0.00,,,0.00,WUHU216HW,2013-01-06 11:10:00,
2013-01-06 05:15:00,8.7,4.1,30.16,West,270,0.8,3.3,81,0.00,,,0.00,WUHU216HW,2013-01-06 11:15:00,
2013-01-06 05:20:00,8.9,4.3,30.16,West,270,4.0,4.0,81,0.00,,,0.00,WUHU216HW,2013-01-06 11:20:00,
2013-01-06 05:25:00,8.9,4.3,30.16,WNW,293,1.3,4.6,81,0.00,,,0.00,WUHU216HW,2013-01-06 11:25:00,
2013-01-06 05:30:00,8.6,3.9,30.16,WNW,293,2.9,4.6,81,0.00,,,0.00,WUHU216HW,2013-01-06 11:30:00,
2013-01-06 05:35:00,7.8,3.2,30.16,NW,315,1.9,3.0,81,0.00,,,0.00,WUHU216HW,2013-01-06 11:35:00,
2013-01-06 05:40:00,7.7,3.0,30.16,WNW,293,0.0,1.9,81,0.00,,,0.00,WUHU216HW,2013-01-06 11:40:00,
2013-01-06 05:45:00,7.7,3.0,30.16,WNW,293,0.0,1.9,81,0.00,,,0.00,WUHU216HW,2013-01-06 11:45:00,
2013-01-06 05:50:00,7.5,2.9,30.16,WNW,293,0.0,0.0,81,0.00,,,0.00,WUHU216HW,2013-01-06 11:50:00,
2013-01-06 05:55:00,7.5,2.9,30.16,WNW,293,3.3,3.3,81,0.00,,,0.00,WUHU216HW,2013-01-06 11:55:00,
2013-01-06 06:00:00,7.7,3.0,30.16,WNW,293,3.8,3.9,81,0.00,,,0.00,WUHU216HW,2013-01-06 12:00:00,
2013-01-06 06:05:00,7.5,2.9,30.16,WNW,293,4.1,4.1,81,0.00,,,0.00,WUHU216HW,2013-01-06 12:05:00,
2013-01-06 06:10:00,7.7,3.0,30.17,WNW,293,6.9,6.9,81,0.00,,,0.00,WUHU216HW,2013-01-06 12:10:00,
2013-01-06 06:15:00,7.7,3.2,30.16,WNW,293,5.8,6.9,81,0.00,,,0.00,WUHU216HW,2013-01-06 12:15:00,
2013-01-06 06:20:00,7.8,3.2,30.17,WNW,293,4.9,6.1,81,0.00,,,0.00,WUHU216HW,2013-01-06 12:20:00,
2013-01-06 06:25:00,7.8,3.2,30.17,WNW,293,5.8,6.1,81,0.00,,,0.00,WUHU216HW,2013-01-06 12:25:00,
2013-01-06 06:30:00,7.5,2.9,30.16,NW,315,6.4,6.4,81,0.00,,,0.00,WUHU216HW,2013-01-06 12:30:00,
2013-01-06 06:35:00,7.5,2.9,30.17,WNW,293,5.8,6.4,81,0.00,,,0.00,WUHU216HW,2013-01-06 12:35:00,
2013-01-06 06:40:00,7.5,2.9,30.16,NW,315,5.0,6.4,81,0.00,,,0.00,WUHU216HW,2013-01-06 12:40:00,
2013-01-06 06:45:00,7.5,2.9,30.17,West,270,0.0,5.5,81,0.00,,,0.00,WUHU216HW,2013-01-06 12:45:00,
2013-01-06 06:50:00,7.3,2.7,30.17,West,270,0.0,4.6,81,0.00,,,0.00,WUHU216HW,2013-01-06 12:50:00,
2013-01-06 06:55:00,7.1,2.5,30.18,WSW,248,0.0,0.0,81,0.00,,,0.00,WUHU216HW,2013-01-06 12:55:00,
2013-01-06 07:00:00,6.8,1.9,30.18,WSW,248,0.0,0.0,80,0.00,,,0.00,WUHU216HW,2013-01-06 13:00:00,
2013-01-06 07:05:00,6.4,1.5,30.18,West,270,0.0,0.0,80,0.00,,,0.00,WUHU216HW,2013-01-06 13:05:00,
2013-01-06 07:10:00,6.4,1.5,30.18,West,270,0.0,0.0,80,0.00,,,0.00,WUHU216HW,2013-01-06 13:10:00,
2013-01-06 07:15:00,6.6,1.7,30.18,WNW,293,4.1,4.1,80,0.00,,,0.00,WUHU216HW,2013-01-06 13:15:00,
2013-01-06 07:20:00,6.4,1.5,30.18,West,270,3.1,4.0,80,0.00,,,0.00,WUHU216HW,2013-01-06 13:20:00,
2013-01-06 07:25:00,6.2,1.4,30.18,WNW,293,1.4,4.1,80,0.00,,,0.00,WUHU216HW,2013-01-06 13:25:00,
2013-01-06 07:30:00,6.0,1.2,30.18,West,270,2.9,3.7,80,0.00,,,0.00,WUHU216HW,2013-01-06 13:30:00,
2013-01-06 07:35:00,6.4,1.5,30.18,WNW,293,2.8,4.1,80,0.00,,,0.00,WUHU216HW,2013-01-06 13:35:00,
2013-01-06 07:40:00,6.4,1.5,30.18,West,270,4.2,4.2,80,0.00,,,0.00,WUHU216HW,2013-01-06 13:40:00,
2013-01-06 07:45:00,6.4,1.5,30.19,West,270,3.5,4.2,80,0.00,,,0.00,WUHU216HW,2013-01-06 13:45:00,
2013-01-06 07:50:00,6.4,1.5,30.18,WNW,293,3.9,4.4,80,0.00,,,0.00,WUHU216HW,2013-01-06 13:50:00,
2013-01-06 07:55:00,6.4,1.5,30.18,WNW,293,0.5,3.7,80,0.00,,,0.00,WUHU216HW,2013-01-06 13:55:00,
2013-01-06 08:00:00,6.6,1.7,30.19,West,270,0.8,3.9,80,0.00,,,0.00,WUHU216HW,2013-01-06 14:00:00,
2013-01-06 08:05:00,6.6,1.7,30.18,West,270,0.0,1.3,80,0.00,,,0.00,WUHU216HW,2013-01-06 14:05:00,
2013-01-06 08:10:00,6.6,1.7,30.18,West,270,0.0,0.8,80,0.00,,,0.00,WUHU216HW,2013-01-06 14:10:00,
2013-01-06 08:15:00,6.6,1.7,30.18,West,270,0.0,1.0,80,0.00,,,0.00,WUHU216HW,2013-01-06 14:15:00,
2013-01-06 08:20:00,6.4,1.5,30.18,WNW,293,0.0,1.0,80,0.00,,,0.00,WUHU216HW,2013-01-06 14:20:00,
2013-01-06 08:25:00,6.4,1.5,30.18,West,270,0.0,0.7,80,0.00,,,0.00,WUHU216HW,2013-01-06 14:25:00,
2013-01-06 08:30:00,6.4,1.5,30.18,West,270,0.0,0.8,80,0.00,,,0.00,WUHU216HW,2013-01-06 14:30:00,
2013-01-06 08:35:00,6.9,2.3,30.19,West,270,0.0,2.6,81,0.00,,,0.00,WUHU216HW,2013-01-06 14:35:00,
2013-01-06 08:40:00,7.1,2.5,30.18,West,270,1.4,2.8,81,0.00,,,0.00,WUHU216HW,2013-01-06 14:40:00,
2013-01-06 08:45:00,7.3,2.7,30.19,WNW,293,3.6,3.6,81,0.00,,,0.00,WUHU216HW,2013-01-06 14:45:00,
2013-01-06 08:50:00,7.7,3.0,30.19,West,270,0.5,3.6,81,0.00,,,0.00,WUHU216HW,2013-01-06 14:50:00,
2013-01-06 08:55:00,8.0,3.4,30.18,WNW,293,1.0,2.5,81,0.00,,,0.00,WUHU216HW,2013-01-06 14:55:00,
2013-01-06 09:00:00,8.2,3.6,30.19,West,270,0.0,2.1,81,0.00,,,0.00,WUHU216HW,2013-01-06 15:00:00,
2013-01-06 09:05:00,8.6,3.9,30.19,WNW,293,2.9,4.1,81,0.00,,,0.00,WUHU216HW,2013-01-06 15:05:00,
2013-01-06 09:10:00,8.6,3.9,30.19,WNW,293,1.8,4.0,81,0.00,,,0.00,WUHU216HW,2013-01-06 15:10:00,
2013-01-06 09:15:00,8.7,4.1,30.19,West,270,0.0,1.8,81,0.00,,,0.00,WUHU216HW,2013-01-06 15:15:00,
2013-01-06 09:20:00,9.1,4.7,30.19,WNW,293,0.0,2.6,82,0.00,,,0.00,WUHU216HW,2013-01-06 15:20:00,
2013-01-06 09:25:00,9.5,5.0,30.19,WNW,293,0.0,2.8,82,0.00,,,0.00,WUHU216HW,2013-01-06 15:25:00,
2013-01-06 09:30:00,9.6,5.2,30.18,WNW,293,0.0,0.0,82,0.00,,,0.00,WUHU216HW,2013-01-06 15:30:00,
2013-01-06 09:35:00,10.2,5.7,30.19,WSW,248,0.0,0.0,82,0.00,,,0.00,WUHU216HW,2013-01-06 15:35:00,
2013-01-06 09:40:00,10.9,6.4,30.18,West,270,0.0,0.0,82,0.00,,,0.00,WUHU216HW,2013-01-06 15:40:00,
2013-01-06 09:45:00,11.1,6.8,30.19,West,270,0.0,0.0,83,0.00,,,0.00,WUHU216HW,2013-01-06 15:45:00,
2013-01-06 09:50:00,11.1,6.8,30.19,WSW,248,0.0,0.0,83,0.00,,,0.00,WUHU216HW,2013-01-06 15:50:00,
2013-01-06 09:55:00,11.3,7.0,30.19,WSW,248,0.0,0.0,83,0.00,,,0.00,WUHU216HW,2013-01-06 15:55:00,
2013-01-06 10:00:00,12.0,7.7,30.19,SW,225,0.0,0.0,83,0.00,,,0.00,WUHU216HW,2013-01-06 16:00:00,
2013-01-06 10:05:00,12.7,8.8,30.19,WSW,248,0.0,0.0,83,0.00,,,0.00,WUHU216HW,2013-01-06 16:05:00,
2013-01-06 10:10:00,13.4,9.2,30.19,SW,225,0.0,0.0,83,0.00,,,0.00,WUHU216HW,2013-01-06 16:10:00,
2013-01-06 10:15:00,13.6,9.4,30.19,SW,225,0.0,0.0,83,0.00,,,0.00,WUHU216HW,2013-01-06 16:15:00,
2013-01-06 10:20:00,13.8,9.5,30.19,SW,225,0.0,0.0,83,0.00,,,0.00,WUHU216HW,2013-01-06 16:20:00,
2013-01-06 10:25:00,14.1,9.9,30.19,SSW,203,0.0,0.0,83,0.00,,,0.00,WUHU216HW,2013-01-06 16:25:00,
2013-01-06 10:30:00,14.3,10.1,30.19,SSW,203,0.0,0.0,83,0.00,,,0.00,WUHU216HW,2013-01-06 16:30:00,
2013-01-06 10:35:00,14.5,10.2,30.19,SSW,203,0.0,0.0,83,0.00,,,0.00,WUHU216HW,2013-01-06 16:35:00,
2013-01-06 10:40:00,14.9,10.6,30.19,South,180,0.0,0.0,83,0.00,,,0.00,WUHU216HW,2013-01-06 16:40:00,
2013-01-06 10:45:00,14.9,10.6,30.19,South,180,0.0,0.0,83,0.00,,,0.00,WUHU216HW,2013-01-06 16:45:00,
2013-01-06 10:50:00,14.9,10.8,30.18,South,180,0.0,0.0,83,0.00,,,0.00,WUHU216HW,2013-01-06 16:50:00,
2013-01-06 10:55:00,15.2,10.9,30.18,SSW,203,0.0,0.0,83,0.00,,,0.00,WUHU216HW,2013-01-06 16:55:00,
2013-01-06 11:00:00,15.6,11.3,30.18,SSW,203,0.0,0.0,83,0.00,,,0.00,WUHU216HW,2013-01-06 17:00:00,
2013-01-06 11:05:00,15.6,11.3,30.19,South,180,0.0,0.0,83,0.00,,,0.00,WUHU216HW,2013-01-06 17:05:00,
2013-01-06 11:10:00,15.6,11.3,30.19,SSW,203,0.0,0.0,83,0.00,,,0.00,WUHU216HW,2013-01-06 17:10:00,
2013-01-06 11:15:00,15.6,11.3,30.19,South,180,0.0,0.0,83,0.00,,,0.00,WUHU216HW,2013-01-06 17:15:00,
2013-01-06 11:20:00,15.9,11.6,30.19,South,180,0.0,0.0,83,0.00,,,0.00,WUHU216HW,2013-01-06 17:20:00,
2013-01-06 11:25:00,17.4,13.2,30.18,SSW,203,0.0,0.0,84,0.00,,,0.00,WUHU216HW,2013-01-06 17:25:00,
2013-01-06 11:30:00,19.0,14.9,30.18,SSW,203,0.0,0.0,84,0.00,,,0.00,WUHU216HW,2013-01-06 17:30:00,
2013-01-06 11:35:00,20.4,16.3,30.18,South,180,0.0,0.0,83,0.00,,,0.00,WUHU216HW,2013-01-06 17:35:00,
2013-01-06 11:40:00,21.0,16.6,30.17,SSE,158,0.0,0.0,83,0.00,,,0.00,WUHU216HW,2013-01-06 17:40:00,
2013-01-06 11:45:00,20.1,15.4,30.17,South,180,0.0,0.0,82,0.00,,,0.00,WUHU216HW,2013-01-06 17:45:00,
2013-01-06 11:50:00,18.6,14.0,30.17,SSE,158,0.0,0.0,82,0.00,,,0.00,WUHU216HW,2013-01-06 17:50:00,
2013-01-06 11:55:00,17.7,12.8,30.16,South,180,0.0,0.0,81,0.00,,,0.00,WUHU216HW,2013-01-06 17:55:00,
2013-01-06 12:00:00,17.2,12.5,30.16,SSE,158,0.0,0.0,82,0.00,,,0.00,WUHU216HW,2013-01-06 18:00:00,
2013-01-06 12:05:00,16.1,11.3,30.15,SSE,158,0.0,0.0,81,0.00,,,0.00,WUHU216HW,2013-01-06 18:05:00,
2013-01-06 12:10:00,15.6,10.8,30.15,SSE,158,0.0,0.0,81,0.00,,,0.00,WUHU216HW,2013-01-06 18:10:00,
2013-01-06 12:15:00,15.6,10.8,30.14,SSE,158,0.0,0.0,81,0.00,,,0.00,WUHU216HW,2013-01-06 18:15:00,
2013-01-06 12:20:00,15.8,11.0,30.14,South,180,0.0,0.0,81,0.00,,,0.00,WUHU216HW,2013-01-06 18:20:00,
2013-01-06 12:25:00,16.7,12.0,30.14,South,180,0.0,0.0,82,0.00,,,0.00,WUHU216HW,2013-01-06 18:25:00,
2013-01-06 12:30:00,18.1,13.7,30.14,South,180,0.0,0.0,83,0.00,,,0.00,WUHU216HW,2013-01-06 18:30:00,
2013-01-06 12:35:00,19.5,15.1,30.14,SSE,158,0.0,0.0,83,0.00,,,0.00,WUHU216HW,2013-01-06 18:35:00,
2013-01-06 12:40:00,19.9,15.2,30.14,South,180,0.0,0.0,82,0.00,,,0.00,WUHU216HW,2013-01-06 18:40:00,
2013-01-06 12:45:00,19.9,14.7,30.14,South,180,0.0,0.0,80,0.00,,,0.00,WUHU216HW,2013-01-06 18:45:00,
2013-01-06 12:50:00,20.3,15.0,30.13,South,180,0.0,0.0,80,0.00,,,0.00,WUHU216HW,2013-01-06 18:50:00,
2013-01-06 12:55:00,19.9,14.4,30.13,South,180,0.0,0.0,79,0.00,,,0.00,WUHU216HW,2013-01-06 18:55:00,
2013-01-06 13:00:00,19.2,13.0,30.12,South,180,0.0,0.0,77,0.00,,,0.00,WUHU216HW,2013-01-06 19:00:00,
2013-01-06 13:05:00,18.5,12.0,30.12,SSE,158,0.0,0.0,76,0.00,,,0.00,WUHU216HW,2013-01-06 19:05:00,
2013-01-06 13:10:00,18.1,11.7,30.11,South,180,0.0,0.0,76,0.00,,,0.00,WUHU216HW,2013-01-06 19:10:00,
2013-01-06 13:15:00,18.1,11.7,30.11,South,180,0.0,0.0,76,0.00,,,0.00,WUHU216HW,2013-01-06 19:15:00,
2013-01-06 13:20:00,18.1,11.7,30.10,South,180,0.0,0.0,76,0.00,,,0.00,WUHU216HW,2013-01-06 19:20:00,
2013-01-06 13:25:00,18.3,11.9,30.11,South,180,0.0,0.0,76,0.00,,,0.00,WUHU216HW,2013-01-06 19:25:00,
2013-01-06 13:30:00,18.6,12.5,30.10,SSW,203,0.0,0.0,77,0.00,,,0.00,WUHU216HW,2013-01-06 19:30:00,
2013-01-06 13:35:00,19.0,12.9,30.11,SSE,158,0.0,0.0,77,0.00,,,0.00,WUHU216HW,2013-01-06 19:35:00,
2013-01-06 13:40:00,19.0,12.5,30.10,South,180,0.0,0.0,76,0.00,,,0.00,WUHU216HW,2013-01-06 19:40:00,
2013-01-06 13:45:00,18.3,11.6,30.10,South,180,0.0,0.0,75,0.00,,,0.00,WUHU216HW,2013-01-06 19:45:00,
2013-01-06 13:50:00,18.3,11.7,30.10,South,180,0.0,0.0,76,0.00,,,0.00,WUHU216HW,2013-01-06 19:50:00,
2013-01-06 13:55:00,18.5,12.0,30.10,South,180,0.0,0.0,76,0.00,,,0.00,WUHU216HW,2013-01-06 19:55:00,
2013-01-06 14:00:00,18.8,12.4,30.10,South,180,7.7,8.8,76,0.00,,,0.00,WUHU216HW,2013-01-06 20:00:00,
2013-01-06 14:06:00,19.2,12.7,30.09,South,180,5.0,9.1,76,0.00,,,0.00,WUHU216HW,2013-01-06 20:06:00,
2013-01-06 14:11:00,19.4,12.9,30.09,South,180,6.9,9.5,76,0.00,,,0.00,WUHU216HW,2013-01-06 20:11:00,
2013-01-06 14:13:00,19.2,12.4,30.09,South,180,3.1,6.6,75,0.00,,,0.00,WUHU216HW,2013-01-06 20:13:00,
2013-01-06 14:18:00,18.5,11.7,30.09,South,180,7.4,7.4,75,0.00,,,0.00,WUHU216HW,2013-01-06 20:18:00,
2013-01-06 14:23:00,17.9,11.2,30.09,South,180,6.9,7.8,75,0.00,,,0.00,WUHU216HW,2013-01-06 20:23:00,
2013-01-06 14:28:00,17.4,10.7,30.09,South,180,8.6,9.5,75,0.00,,,0.00,WUHU216HW,2013-01-06 20:28:00,
2013-01-06 14:33:00,17.4,11.0,30.08,South,180,13.1,13.1,76,0.00,,,0.00,WUHU216HW,2013-01-06 20:33:00,
2013-01-06 14:38:00,17.4,11.0,30.09,South,180,10.0,13.1,76,0.00,,,0.00,WUHU216HW,2013-01-06 20:38:00,
2013-01-06 14:43:00,17.4,11.0,30.09,South,180,7.0,12.6,76,0.00,,,0.00,WUHU216HW,2013-01-06 20:43:00,
2013-01-06 14:48:00,17.6,11.2,30.09,SSW,203,5.3,10.2,76,0.00,,,0.00,WUHU216HW,2013-01-06 20:48:00,
2013-01-06 14:53:00,17.9,11.8,30.09,SSW,203,8.0,10.6,77,0.00,,,0.00,WUHU216HW,2013-01-06 20:53:00,
2013-01-06 14:58:00,18.1,12.0,30.09,South,180,12.0,12.0,77,0.00,,,0.00,WUHU216HW,2013-01-06 20:58:00,
2013-01-06 15:00:00,18.1,12.0,30.09,South,180,12.0,12.0,77,0.00,,,0.00,WUHU216HW,2013-01-06 21:00:00,
2013-01-06 15:05:00,18.5,12.3,30.09,South,180,9.4,12.0,77,0.00,,,0.00,WUHU216HW,2013-01-06 21:05:00,
2013-01-06 15:10:00,18.8,12.7,30.09,South,180,12.8,12.8,77,0.00,,,0.00,WUHU216HW,2013-01-06 21:10:00,
2013-01-06 15:15:00,18.5,12.0,30.09,South,180,13.9,13.9,76,0.00,,,0.00,WUHU216HW,2013-01-06 21:15:00,
2013-01-06 15:20:00,18.1,11.7,30.09,SSE,158,13.1,13.9,76,0.00,,,0.00,WUHU216HW,2013-01-06 21:20:00,
2013-01-06 15:25:00,17.6,11.5,30.08,SSE,158,10.2,15.0,77,0.00,,,0.00,WUHU216HW,2013-01-06 21:25:00,
2013-01-06 15:30:00,17.2,11.1,30.07,South,180,15.1,16.4,77,0.00,,,0.00,WUHU216HW,2013-01-06 21:30:00,
2013-01-06 15:35:00,16.8,11.1,30.07,South,180,15.0,16.4,78,0.00,,,0.00,WUHU216HW,2013-01-06 21:35:00,
2013-01-06 15:40:00,16.8,11.1,30.07,South,180,16.1,16.1,78,0.00,,,0.00,WUHU216HW,2013-01-06 21:40:00,
2013-01-06 15:45:00,16.8,11.1,30.08,South,180,14.4,15.5,78,0.00,,,0.00,WUHU216HW,2013-01-06 21:45:00,
2013-01-06 15:50:00,16.8,11.4,30.08,South,180,10.6,15.0,79,0.00,,,0.00,WUHU216HW,2013-01-06 21:50:00,
2013-01-06 15:55:00,16.8,11.4,30.08,South,180,8.6,12.0,79,0.00,,,0.00,WUHU216HW,2013-01-06 21:55:00,
2013-01-06 16:00:00,16.8,11.4,30.07,South,180,11.5,11.5,79,0.00,,,0.00,WUHU216HW,2013-01-06 22:00:00,
2013-01-06 16:05:00,16.7,11.2,30.07,South,180,9.1,15.2,79,0.00,,,0.00,WUHU216HW,2013-01-06 22:05:00,
2013-01-06 16:10:00,16.5,11.1,30.06,SSE,158,5.3,15.2,79,0.00,,,0.00,WUHU216HW,2013-01-06 22:10:00,
2013-01-06 16:15:00,16.3,10.9,30.06,South,180,16.6,16.6,79,0.00,,,0.00,WUHU216HW,2013-01-06 22:15:00,
2013-01-06 16:20:00,16.1,11.0,30.05,South,180,20.0,20.0,80,0.00,,,0.00,WUHU216HW,2013-01-06 22:20:00,
2013-01-06 16:25:00,16.3,11.4,30.05,SSE,158,19.0,20.9,81,0.00,,,0.00,WUHU216HW,2013-01-06 22:25:00,
2013-01-06 16:30:00,16.3,11.4,30.04,South,180,13.9,20.0,81,0.00,,,0.00,WUHU216HW,2013-01-06 22:30:00,
2013-01-06 16:35:00,16.5,11.6,30.04,SSE,158,15.0,19.0,81,0.00,,,0.00,WUHU216HW,2013-01-06 22:35:00,
2013-01-06 16:40:00,16.5,11.6,30.04,SSE,158,9.8,15.0,81,0.00,,,0.00,WUHU216HW,2013-01-06 22:40:00,
2013-01-06 16:45:00,16.5,11.6,30.04,South,180,15.4,15.4,81,0.00,,,0.00,WUHU216HW,2013-01-06 22:45:00,
2013-01-06 16:50:00,16.5,11.6,30.03,South,180,17.0,18.4,81,0.00,,,0.00,WUHU216HW,2013-01-06 22:50:00,
2013-01-06 16:55:00,16.3,11.4,30.03,South,180,10.2,17.6,81,0.00,,,0.00,WUHU216HW,2013-01-06 22:55:00,
2013-01-06 17:00:00,16.3,11.4,30.03,South,180,17.3,17.3,81,0.00,,,0.00,WUHU216HW,2013-01-06 23:00:00,
2013-01-06 17:05:00,16.5,11.9,30.03,South,180,17.7,19.3,82,0.00,,,0.00,WUHU216HW,2013-01-06 23:05:00,
2013-01-06 17:10:00,16.5,11.9,30.02,SSW,203,19.5,19.5,82,0.00,,,0.00,WUHU216HW,2013-01-06 23:10:00,
2013-01-06 17:15:00,16.8,12.2,30.02,South,180,18.5,18.7,82,0.00,,,0.00,WUHU216HW,2013-01-06 23:15:00,
2013-01-06 17:20:00,16.8,12.2,30.01,SSE,158,16.1,18.5,82,0.00,,,0.00,WUHU216HW,2013-01-06 23:20:00,
2013-01-06 17:25:00,16.7,12.0,30.00,SSE,158,21.3,21.3,82,0.00,,,0.00,WUHU216HW,2013-01-06 23:25:00,
2013-01-06 17:30:00,16.7,12.0,30.00,SSE,158,17.9,26.0,82,0.00,,,0.00,WUHU216HW,2013-01-06 23:30:00,
2013-01-06 17:35:00,16.8,12.2,29.99,SSE,158,22.4,25.0,82,0.00,,,0.00,WUHU216HW,2013-01-06 23:35:00,
2013-01-06 17:40:00,16.8,12.2,29.98,South,171,19.6,29.3,82,0.00,,,0.00,WUHU216HW,2013-01-06 23:40:00,
2013-01-06 17:45:00,17.2,12.5,29.97,SSE,158,19.8,29.3,82,0.00,,,0.00,WUHU216HW,2013-01-06 23:45:00,
2013-01-06 17:50:00,17.2,12.5,29.97,South,180,18.7,22.8,82,0.00,,,0.00,WUHU216HW,2013-01-06 23:50:00,
2013-01-06 17:55:00,17.4,12.7,29.97,SSE,158,20.6,20.6,82,0.00,,,0.00,WUHU216HW,2013-01-06 23:55:00,
2013-01-06 18:00:00,17.6,12.9,29.97,SSE,158,21.1,21.1,82,0.00,,,0.00,WUHU216HW,2013-01-07 00:00:00,
2013-01-06 18:05:00,17.9,13.2,29.97,South,180,19.8,22.0,82,0.00,,,0.00,WUHU216HW,2013-01-07 00:05:00,
2013-01-06 18:13:00,18.6,14.0,29.96,SSE,158,20.1,20.1,82,0.00,,,0.00,WUHU216HW,2013-01-07 00:13:00,
2013-01-06 18:18:00,19.2,14.5,29.96,SSE,158,24.6,24.6,82,0.00,,,0.00,WUHU216HW,2013-01-07 00:18:00,
2013-01-06 18:23:00,19.5,14.6,29.96,South,180,22.9,25.6,81,0.00,,,0.00,WUHU216HW,2013-01-07 00:23:00,
2013-01-06 18:28:00,19.5,14.6,29.95,South,180,27.4,27.4,81,0.00,,,0.00,WUHU216HW,2013-01-07 00:28:00,
2013-01-06 18:33:00,19.9,14.9,29.94,South,180,17.2,28.4,81,0.00,,,0.00,WUHU216HW,2013-01-07 00:33:00,
2013-01-06 18:38:00,20.3,15.0,29.93,SSE,158,16.8,32.6,80,0.00,,,0.00,WUHU216HW,2013-01-07 00:38:00,
2013-01-06 18:43:00,20.3,15.0,29.93,SSE,158,24.6,32.6,80,0.00,,,0.00,WUHU216HW,2013-01-07 00:43:00,
2013-01-06 18:48:00,20.3,15.0,29.93,South,180,22.8,25.0,80,0.00,,,0.00,WUHU216HW,2013-01-07 00:48:00,
2013-01-06 18:53:00,20.3,14.7,29.93,South,180,22.8,26.0,79,0.00,,,0.00,WUHU216HW,2013-01-07 00:53:00,
2013-01-06 18:58:00,20.3,14.7,29.93,SSE,158,19.0,24.9,79,0.00,,,0.00,WUHU216HW,2013-01-07 00:58:00,
2013-01-06 19:03:00,20.3,14.7,29.92,South,180,21.7,22.4,79,0.00,,,0.00,WUHU216HW,2013-01-07 01:03:00,
2013-01-06 19:08:00,20.4,15.2,29.92,SSE,158,27.0,27.0,80,0.00,,,0.00,WUHU216HW,2013-01-07 01:08:00,
2013-01-06 19:13:00,21.0,15.4,29.92,South,180,25.7,25.9,79,0.00,,,0.00,WUHU216HW,2013-01-07 01:13:00,
2013-01-06 19:18:00,21.3,15.8,29.92,South,180,27.9,27.9,79,0.00,,,0.00,WUHU216HW,2013-01-07 01:18:00,
2013-01-06 19:23:00,21.7,16.2,29.92,South,180,24.6,33.7,79,0.00,,,0.00,WUHU216HW,2013-01-07 01:23:00,
2013-01-06 19:28:00,21.7,15.9,29.92,South,180,19.8,33.7,78,0.00,,,0.00,WUHU216HW,2013-01-07 01:28:00,
2013-01-06 19:33:00,21.9,16.0,29.91,South,180,14.4,21.1,78,0.00,,,0.00,WUHU216HW,2013-01-07 01:33:00,
2013-01-06 19:38:00,22.1,16.2,29.91,SSE,158,18.7,22.4,78,0.00,,,0.00,WUHU216HW,2013-01-07 01:38:00,
2013-01-06 19:43:00,22.2,16.4,29.90,South,180,25.1,25.1,78,0.00,,,0.00,WUHU216HW,2013-01-07 01:43:00,
2013-01-06 19:48:00,22.4,16.3,29.90,South,180,22.9,25.1,77,0.00,,,0.00,WUHU216HW,2013-01-07 01:48:00,
2013-01-06 19:53:00,22.8,16.6,29.90,South,180,15.9,33.5,77,0.00,,,0.00,WUHU216HW,2013-01-07 01:53:00,
2013-01-06 19:58:00,23.3,17.2,29.90,South,180,19.0,32.2,77,0.00,,,0.00,WUHU216HW,2013-01-07 01:58:00,
2013-01-06 20:03:00,23.5,17.0,29.89,South,180,29.5,29.5,76,0.00,,,0.00,WUHU216HW,2013-01-07 02:03:00,
2013-01-06 20:08:00,23.5,17.0,29.88,South,180,22.0,30.8,76,0.00,,,0.00,WUHU216HW,2013-01-07 02:08:00,
2013-01-06 20:13:00,23.5,17.0,29.88,South,180,23.0,27.0,76,0.00,,,0.00,WUHU216HW,2013-01-07 02:13:00,
2013-01-06 20:18:00,23.7,17.2,29.87,South,180,31.3,36.6,76,0.00,,,0.00,WUHU216HW,2013-01-07 02:18:00,
2013-01-06 20:23:00,23.9,17.0,29.87,SSE,158,26.3,35.2,75,0.00,,,0.00,WUHU216HW,2013-01-07 02:23:00,
2013-01-06 20:28:00,24.0,17.5,29.87,South,180,24.4,34.1,76,0.00,,,0.00,WUHU216HW,2013-01-07 02:28:00,
2013-01-06 20:33:00,24.0,17.2,29.87,South,180,33.3,33.3,75,0.00,,,0.00,WUHU216HW,2013-01-07 02:33:00,
2013-01-06 20:38:00,23.9,17.0,29.86,SSE,168,22.3,35.5,75,0.00,,,0.00,WUHU216HW,2013-01-07 02:38:00,
2013-01-06 20:43:00,23.3,16.7,29.86,South,180,32.4,35.5,75,0.00,,,0.00,WUHU216HW,2013-01-07 02:43:00,
2013-01-06 20:48:00,23.0,16.2,29.86,South,180,27.6,31.1,75,0.00,,,0.00,WUHU216HW,2013-01-07 02:48:00,
2013-01-06 20:53:00,22.8,16.0,29.86,South,180,26.0,32.4,75,0.00,,,0.00,WUHU216HW,2013-01-07 02:53:00,
2013-01-06 20:58:00,22.2,15.8,29.85,South,180,28.8,29.3,76,0.00,,,0.00,WUHU216HW,2013-01-07 02:58:00,
2013-01-06 21:03:00,22.2,16.1,29.85,South,180,23.0,31.1,77,0.00,,,0.00,WUHU216HW,2013-01-07 03:03:00,
2013-01-06 21:08:00,22.2,16.1,29.84,SSE,158,24.9,32.4,77,0.00,,,0.00,WUHU216HW,2013-01-07 03:08:00,
2013-01-06 21:13:00,22.4,16.3,29.85,South,180,25.2,25.2,77,0.00,,,0.00,WUHU216HW,2013-01-07 03:13:00,
2013-01-06 21:18:00,22.4,16.3,29.84,South,180,21.8,26.3,77,0.00,,,0.00,WUHU216HW,2013-01-07 03:18:00,
2013-01-06 21:23:00,22.6,16.5,29.84,South,180,19.0,25.7,77,0.00,,,0.00,WUHU216HW,2013-01-07 03:23:00,
2013-01-06 21:28:00,22.8,16.6,29.84,South,180,22.8,25.7,77,0.00,,,0.00,WUHU216HW,2013-01-07 03:28:00,
2013-01-06 21:33:00,23.0,17.1,29.84,South,180,18.8,23.8,78,0.00,,,0.00,WUHU216HW,2013-01-07 03:33:00,
2013-01-06 21:38:00,23.0,17.1,29.83,South,180,24.4,24.4,78,0.00,,,0.00,WUHU216HW,2013-01-07 03:38:00,
2013-01-06 21:43:00,23.3,17.5,29.83,South,180,27.4,27.4,78,0.00,,,0.00,WUHU216HW,2013-01-07 03:43:00,
2013-01-06 21:48:00,23.5,17.6,29.83,South,180,16.6,26.3,78,0.00,,,0.00,WUHU216HW,2013-01-07 03:48:00,
2013-01-06 21:53:00,23.5,17.6,29.83,SSW,203,20.4,22.0,78,0.00,,,0.00,WUHU216HW,2013-01-07 03:53:00,
2013-01-06 21:58:00,23.7,18.0,29.83,SSW,203,17.2,22.0,78,0.00,,,0.00,WUHU216HW,2013-01-07 03:58:00,
2013-01-06 22:03:00,23.9,18.0,29.83,SSW,203,12.5,21.3,78,0.00,,,0.00,WUHU216HW,2013-01-07 04:03:00,
2013-01-06 22:08:00,24.0,18.2,29.83,SW,225,19.8,19.8,78,0.00,,,0.00,WUHU216HW,2013-01-07 04:08:00,
2013-01-06 22:13:00,24.0,18.2,29.83,SW,225,17.5,20.6,78,0.00,,,0.00,WUHU216HW,2013-01-07 04:13:00,
2013-01-06 22:18:00,24.4,18.8,29.83,SSW,203,15.6,30.1,79,0.00,,,0.00,WUHU216HW,2013-01-07 04:18:00,
2013-01-06 22:23:00,24.6,19.0,29.83,South,180,15.0,28.9,79,0.00,,,0.00,WUHU216HW,2013-01-07 04:23:00,
2013-01-06 22:28:00,24.9,19.4,29.83,SSW,203,19.8,19.8,79,0.00,,,0.00,WUHU216HW,2013-01-07 04:28:00,
2013-01-06 22:33:00,25.1,19.5,29.83,SSW,203,17.5,20.6,79,0.00,,,0.00,WUHU216HW,2013-01-07 04:33:00,
2013-01-06 22:38:00,25.5,19.9,29.83,SSW,203,30.0,30.0,79,0.00,,,0.00,WUHU216HW,2013-01-07 04:38:00,
2013-01-06 22:43:00,25.7,20.0,29.83,SW,225,25.4,31.3,79,0.00,,,0.00,WUHU216HW,2013-01-07 04:43:00,
2013-01-06 22:48:00,25.8,20.2,29.83,SSW,203,23.1,25.4,79,0.00,,,0.00,WUHU216HW,2013-01-07 04:48:00,
2013-01-06 22:53:00,26.0,20.3,29.84,SSW,203,16.6,24.4,79,0.00,,,0.00,WUHU216HW,2013-01-07 04:53:00,
2013-01-06 22:58:00,25.8,20.2,29.84,SW,225,15.0,18.5,79,0.00,,,0.00,WUHU216HW,2013-01-07 04:58:00,
2013-01-06 23:00:00,25.8,20.2,29.83,SSW,203,15.9,19.3,79,0.00,,,0.00,WUHU216HW,2013-01-07 05:00:00,
2013-01-06 23:01:00,25.8,20.2,29.84,SSW,203,14.8,18.5,79,0.00,,,0.00,WUHU216HW,2013-01-07 05:01:00,
2013-01-06 23:06:00,25.8,20.2,29.83,SW,225,16.3,19.0,79,0.00,,,0.00,WUHU216HW,2013-01-07 05:06:00,
2013-01-06 23:11:00,25.8,20.2,29.84,SSW,203,20.9,20.9,79,0.00,,,0.00,WUHU216HW,2013-01-07 05:11:00,
2013-01-06 23:16:00,26.2,20.7,29.83,SW,225,22.3,22.3,79,0.00,,,0.00,WUHU216HW,2013-01-07 05:16:00,
2013-01-06 23:21:00,26.7,21.0,29.83,SW,225,17.4,21.4,79,0.00,,,0.00,WUHU216HW,2013-01-07 05:21:00,
2013-01-06 23:26:00,27.1,21.4,29.83,WSW,248,12.6,17.4,79,0.00,,,0.00,WUHU216HW,2013-01-07 05:26:00,
2013-01-06 23:31:00,27.3,21.3,29.84,SSW,203,11.5,17.4,78,0.00,,,0.00,WUHU216HW,2013-01-07 05:31:00,
2013-01-06 23:36:00,27.5,21.4,29.83,SW,214,21.8,22.0,78,0.00,,,0.00,WUHU216HW,2013-01-07 05:36:00,
2013-01-06 23:41:00,27.6,21.3,29.84,WSW,248,23.9,23.9,77,0.00,,,0.00,WUHU216HW,2013-01-07 05:41:00,
2013-01-06 23:46:00,27.6,21.3,29.84,SW,225,14.3,24.9,77,0.00,,,0.00,WUHU216HW,2013-01-07 05:46:00,
2013-01-06 23:51:00,27.6,21.3,29.83,WSW,248,18.7,26.3,77,0.00,,,0.00,WUHU216HW,2013-01-07 05:51:00,
2013-01-06 23:56:00,27.6,21.3,29.83,West,270,26.0,27.4,77,0.00,,,0.00,WUHU216HW,2013-01-07 05:56:00,